[[{"header":{"parameterUnit":"m.s-1","parameterCategory":1,"la1":30.2991,"la2":30.254,"lo1":-89.0895,"lo2":-89.0444,"dy":0.0017,"dx":0.0017,"nx":28,"ny":28,"refTime":"2025-12-13T03:00:00:Z","depth":0,"parameterNumber":2,"parameterNumberName":"U-component_of_WINDS"},"data":[0,0,0,0,0,0,0,0,0,0,0,0,0,0,0,0,0,0,0,0,0,0,0,0,0,0,0,0,0,0,0,0,0,0,0,0,0,0,0,0,0,0,0,0,0,0,0,0,0,0,0,0,0,0,0,0,0,0,-1.5511,-1.5511,0,-1.5525,-1.5526,-1.5526,-1.5506,-1.5505,-1.5504,-1.5504,-1.5518,-1.5519,-1.552,0,0,0,0,0,0,0,0,0,0,0,0,0,-1.5465,-1.5466,-1.5511,-1.5511,-1.5511,-1.5525,-1.5526,-1.5526,-1.5506,-1.5505,-1.5504,-1.5503,-1.5518,-1.5519,-1.552,0,0,0,0,0,0,0,0,0,0,0,0,0,-1.5483,-1.5466,-1.5511,-1.5503,-1.5502,-1.5525,-1.5526,-1.5526,-1.5506,-1.5505,-1.5504,-1.5503,-1.5517,-1.5519,-1.5521,-1.5552,0,0,-1.5525,-1.5526,0,0,0,0,0,0,0,0,-1.5482,-1.5485,-1.5504,-1.5504,-1.5503,-1.5513,-1.5515,-1.5535,-1.5506,-1.5505,-1.5504,-1.5502,-1.5517,-1.5519,-1.5524,-1.5553,-1.5553,-1.5525,-1.5526,-1.5527,-1.5528,0,0,0,0,0,0,0,-1.5481,-1.5484,-1.5517,-1.5504,-1.5504,-1.5499,-1.55,-1.5519,-1.5517,-1.5505,-1.5503,-1.5505,-1.5517,-1.5522,-1.5524,-1.5553,-1.5525,-1.5527,-1.5528,-1.5528,-1.5608,-1.5609,0,0,0,0,0,0,-1.5481,-1.5483,-1.5516,-1.5517,-1.549,-1.55,-1.5502,-1.5511,-1.5516,-1.5516,-1.5506,-1.5504,-1.552,-1.5522,-1.5524,-1.5561,-1.5527,-1.5529,-1.553,-1.5607,-1.5608,-1.5609,0,0,0,0,0,0,-1.548,-1.5484,-1.5516,-1.55,-1.5503,-1.5502,-1.5512,-1.5511,-1.5517,-1.5518,-1.5517,-1.5512,-1.5519,-1.5522,-1.5545,-1.5561,-1.5529,-1.5531,-1.5605,-1.5607,-1.5609,-1.5634,0,0,0,0,0,0,-1.5478,-1.5484,-1.5495,-1.55,-1.5504,-1.5536,-1.5513,-1.5513,-1.552,-1.5518,-1.5523,-1.5523,-1.5519,-1.5543,-1.5547,-1.5563,-1.5532,-1.5604,-1.5606,-1.5608,-1.5632,-1.5636,-1.564,0,0,0,0,0,-1.5477,-1.5502,-1.5496,-1.55,-1.5519,-1.5537,-1.5539,-1.5534,-1.5521,-1.5533,-1.5533,-1.5523,-1.5559,-1.5545,-1.5549,-1.5566,-1.5603,-1.5606,-1.5608,-1.563,-1.5635,-1.564,0,0,0,0,0,0,-1.5499,-1.5503,-1.5496,-1.5524,-1.553,-1.5534,-1.5548,-1.554,-1.5551,-1.5548,-1.5541,-1.5542,-1.5566,-1.5569,-1.5554,-1.5596,-1.5579,-1.5582,-1.5594,-1.5599,-1.5603,-1.5602,-1.5533,0,0,0,0,0,-1.5507,-1.5522,-1.5524,-1.5548,-1.5552,-1.555,-1.5557,-1.5552,-1.5559,-1.5562,-1.5564,-1.557,-1.5583,-1.5591,-1.5603,-1.5632,-1.5633,-1.5646,-1.565,-1.5654,-1.5657,-1.5671,-1.5677,-1.5618,-1.5618,-1.5618,0,0,-1.5524,-1.5528,-1.5537,-1.5552,-1.5557,-1.5572,-1.5552,-1.5568,-1.5579,-1.5564,-1.5585,-1.5587,-1.5594,-1.562,-1.5632,-1.5623,-1.5673,-1.5657,-1.566,-1.5661,-1.5675,-1.568,-1.5685,-1.562,-1.5619,-1.5619,0,0,-1.5562,-1.5567,-1.5587,-1.5592,-1.5599,-1.5598,-1.5603,-1.5607,-1.5608,-1.5629,-1.5618,-1.5631,-1.5653,-1.5658,-1.5664,-1.5704,-1.5695,-1.5709,-1.5731,-1.5745,-1.575,-1.5754,-1.5767,-1.5772,-1.5712,-1.5712,-1.5712,0,-1.5582,-1.5604,-1.5598,-1.5615,-1.5622,-1.5609,-1.5629,-1.5635,-1.5645,-1.565,-1.564,-1.5668,-1.5672,-1.5698,-1.5708,-1.5713,-1.5718,-1.5707,-1.575,-1.5754,-1.5757,-1.577,-1.5775,-1.5713,-1.5713,-1.5713,-1.5713,0,-1.5627,-1.5643,-1.5658,-1.5668,-1.5677,-1.5696,-1.5693,-1.5702,-1.5697,-1.5697,-1.5718,-1.5723,-1.5735,-1.5741,-1.5736,-1.5767,-1.5761,-1.5751,-1.5732,-1.5765,-1.5776,-1.5781,-1.5715,-1.5715,-1.5714,-1.5714,0,0,-1.5679,-1.5686,-1.5692,-1.5696,-1.5703,-1.5715,-1.5733,-1.5745,-1.5753,-1.5761,-1.5775,-1.5795,-1.5785,-1.5791,-1.5787,-1.58,-1.583,-1.5788,-1.5788,-1.5795,-1.5864,-1.587,-1.5876,-1.5825,-1.5826,-1.5826,-1.5863,0,-1.5715,-1.5746,-1.5742,-1.5772,-1.5785,-1.5774,-1.5789,-1.5795,-1.5796,-1.5807,-1.5808,-1.5821,-1.5808,-1.5811,-1.5824,-1.5824,-1.5844,-1.5822,-1.5837,-1.5838,-1.5834,-1.5882,-1.589,-1.5923,-1.5867,-1.5868,-1.5869,0,-1.5762,-1.5772,-1.5803,-1.5808,-1.5813,-1.5827,-1.5838,-1.5849,-1.5856,-1.5855,-1.5862,-1.5856,-1.5873,-1.5856,-1.588,-1.5865,-1.5871,-1.5873,-1.5874,-1.5874,-1.5854,-1.5883,-1.5934,-1.5939,-1.5876,-1.5875,-1.5875,0,-1.5795,-1.5816,-1.5837,-1.5841,-1.5848,-1.5858,-1.5861,-1.5867,-1.5874,-1.5883,-1.5888,-1.5899,-1.5905,-1.5914,-1.5911,-1.5899,-1.5935,-1.5918,-1.5934,-1.5934,-1.5941,-1.5941,-1.5993,-1.5948,-1.5948,-1.5948,-1.5948,0,-1.5836,-1.5855,-1.5852,-1.5864,-1.5885,-1.588,-1.5901,-1.5903,-1.5908,-1.5921,-1.5912,-1.5924,-1.592,-1.5932,-1.5929,-1.5949,-1.5952,-1.5952,-1.595,-1.5951,-1.5951,-1.5954,-1.5952,-1.5949,-1.5949,-1.5948,-1.5948,0,-1.5876,-1.5874,-1.5896,-1.5901,-1.5902,-1.5917,-1.5921,-1.5933,-1.5933,-1.5949,-1.5952,-1.5952,-1.5965,-1.5963,-1.5978,-1.5977,-1.6001,-1.5998,-1.5999,-1.5997,-1.6014,-1.6012,-1.6069,-1.6076,-1.6027,-1.6028,-1.6028,0,-1.5901,-1.5915,-1.5921,-1.5929,-1.5933,-1.5946,-1.5953,-1.5949,-1.5957,-1.5966,-1.5977,-1.599,-1.5999,-1.6021,-1.6022,-1.6034,-1.603,-1.6049,-1.6031,-1.6032,-1.6029,-1.6027,-1.6028,-1.6052,-1.6053,-1.6053,-1.6054,0,-1.5946,-1.5945,-1.5956,-1.5967,-1.5976,-1.5984,-1.5992,-1.5999,-1.5995,-1.6005,-1.6018,-1.6026,-1.6041,-1.6054,-1.6064,-1.6068,-1.606,-1.606,-1.6064,-1.6064,-1.6064,-1.6063,-1.6007,-1.6058,-1.6057,-1.6057,-1.6057,-1.6057,-1.5978,-1.599,-1.5996,-1.6009,-1.6014,-1.6021,-1.6032,-1.6034,-1.6045,-1.6057,-1.6054,-1.6069,-1.6075,-1.6089,-1.6093,-1.6105,-1.6098,-1.6104,-1.6106,-1.6107,-1.6108,-1.6063,-1.6107,-1.6107,-1.6107,-1.6107,-1.6107,0,-1.6022,-1.6025,-1.6037,-1.6047,-1.6057,-1.605,-1.6058,-1.6066,-1.608,-1.6086,-1.6096,-1.6112,-1.6124,-1.6126,-1.6137,-1.6146,-1.6143,-1.6149,-1.6148,-1.6148,-1.6115,-1.6109,-1.6152,-1.6152,-1.6152,-1.6152,-1.6152,-1.6152,-1.6045,-1.6065,-1.6064,-1.6086,-1.6089,-1.6104,-1.6109,-1.6115,-1.6121,-1.6138,-1.6148,-1.615,-1.6154,-1.6166,-1.6177,-1.6177,-1.6181,-1.6189,-1.6187,-1.6156,-1.6151,-1.6147,-1.6141,-1.619,-1.619,-1.622,-1.622,-1.6221]},{"header":{"parameterUnit":"m.s-1","parameterCategory":1,"la1":30.2991,"la2":30.254,"lo1":-89.0895,"lo2":-89.0444,"dy":0.0017,"dx":0.0017,"nx":28,"ny":28,"refTime":"2025-12-13T03:00:00:Z","depth":0,"parameterNumber":3,"parameterNumberName":"V-component_of_WINDS"},"data":[0,0,0,0,0,0,0,0,0,0,0,0,0,0,0,0,0,0,0,0,0,0,0,0,0,0,0,0,0,0,0,0,0,0,0,0,0,0,0,0,0,0,0,0,0,0,0,0,0,0,0,0,0,0,0,0,0,0,0.3,0.3001,0,0.3076,0.3077,0.3078,0.3083,0.3082,0.3081,0.308,0.3161,0.3163,0.3166,0,0,0,0,0,0,0,0,0,0,0,0,0,0.2861,0.2863,0.3,0.3001,0.3002,0.3076,0.3077,0.3078,0.3083,0.3082,0.3081,0.308,0.316,0.3163,0.3167,0,0,0,0,0,0,0,0,0,0,0,0,0,0.2928,0.2864,0.2999,0.3013,0.3015,0.3076,0.3077,0.3079,0.3083,0.3082,0.308,0.3079,0.3158,0.3163,0.3167,0.3221,0,0,0.3181,0.3183,0,0,0,0,0,0,0,0,0.2924,0.2933,0.301,0.3012,0.3014,0.3069,0.3058,0.3127,0.3083,0.3057,0.308,0.3079,0.3131,0.3138,0.3155,0.3225,0.3228,0.3181,0.3184,0.3186,0.3187,0,0,0,0,0,0,0,0.2919,0.2929,0.303,0.3011,0.3014,0.3016,0.3024,0.3071,0.3101,0.3059,0.306,0.3069,0.3132,0.3151,0.3157,0.3229,0.3181,0.3185,0.3188,0.3189,0.3351,0.3353,0,0,0,0,0,0,0.2912,0.2926,0.3028,0.3032,0.2965,0.302,0.3029,0.3053,0.31,0.3106,0.307,0.3069,0.3144,0.3152,0.316,0.3229,0.3186,0.319,0.3192,0.3349,0.3351,0.3353,0,0,0,0,0,0,0.2909,0.2921,0.3025,0.2979,0.2993,0.3023,0.305,0.3055,0.3073,0.3108,0.3114,0.3083,0.3143,0.3154,0.3207,0.3231,0.3192,0.3196,0.3348,0.335,0.3352,0.3365,0,0,0,0,0,0,0.2905,0.2919,0.2939,0.298,0.2995,0.3069,0.3052,0.3057,0.3081,0.308,0.3122,0.3128,0.3143,0.32,0.3211,0.3237,0.3199,0.3345,0.3349,0.3352,0.3362,0.3368,0.3372,0,0,0,0,0,0.29,0.2939,0.294,0.2952,0.302,0.307,0.3079,0.3095,0.3083,0.3104,0.3127,0.3127,0.3227,0.3205,0.3218,0.3245,0.3344,0.3348,0.3351,0.336,0.3367,0.3372,0,0,0,0,0,0,0.2901,0.2945,0.2946,0.3,0.3031,0.3071,0.3097,0.3101,0.3136,0.3134,0.3153,0.3163,0.3216,0.3236,0.3211,0.3302,0.3284,0.3291,0.3287,0.3293,0.3298,0.3292,0.3203,0,0,0,0,0,0.2908,0.2944,0.298,0.3024,0.304,0.3066,0.3088,0.3098,0.3132,0.3145,0.3171,0.3205,0.3244,0.3269,0.3307,0.3365,0.3376,0.3391,0.3395,0.3399,0.3405,0.344,0.3448,0.3365,0.3365,0.3365,0,0,0.2922,0.295,0.2972,0.3025,0.3051,0.3089,0.3077,0.3118,0.3147,0.3151,0.3203,0.3224,0.3263,0.3319,0.3345,0.3338,0.343,0.3404,0.3406,0.341,0.3445,0.3452,0.3459,0.3368,0.3367,0.3367,0,0,0.2967,0.2991,0.3032,0.3058,0.3097,0.3115,0.3124,0.3164,0.3178,0.3231,0.3236,0.3271,0.3338,0.3366,0.3389,0.3448,0.3451,0.346,0.3485,0.3519,0.3525,0.3531,0.3555,0.3563,0.3465,0.3465,0.3465,0,0.298,0.3037,0.3053,0.3094,0.3119,0.3125,0.3167,0.3192,0.3242,0.3259,0.325,0.3335,0.3361,0.3426,0.3441,0.3458,0.3472,0.3455,0.3523,0.3529,0.3535,0.3558,0.3566,0.3466,0.3466,0.3466,0.3466,0,0.3052,0.3092,0.312,0.3168,0.3196,0.3238,0.3262,0.3288,0.3296,0.3315,0.337,0.3402,0.3448,0.3464,0.3471,0.3531,0.3525,0.3519,0.3502,0.3544,0.3565,0.3574,0.3468,0.3467,0.3467,0.3467,0,0,0.31,0.3158,0.3168,0.3191,0.3236,0.3267,0.331,0.3355,0.3379,0.3413,0.3451,0.3509,0.3504,0.3531,0.3542,0.3572,0.362,0.3563,0.3564,0.3574,0.369,0.3695,0.3705,0.3621,0.3623,0.3624,0.3688,0,0.3152,0.3228,0.3245,0.3311,0.335,0.3357,0.3395,0.3427,0.3447,0.3484,0.3506,0.3547,0.3537,0.3553,0.3583,0.3608,0.3644,0.3603,0.3659,0.3661,0.3651,0.3716,0.3721,0.3779,0.3696,0.3697,0.3698,0,0.3222,0.3259,0.3329,0.3371,0.3388,0.3422,0.3466,0.35,0.3538,0.355,0.3581,0.359,0.3637,0.3617,0.3684,0.3656,0.368,0.3696,0.3699,0.3706,0.3683,0.3727,0.3798,0.3807,0.3711,0.371,0.3709,0,0.3253,0.332,0.3372,0.3391,0.344,0.3465,0.3486,0.3523,0.355,0.3588,0.3607,0.365,0.3674,0.3709,0.373,0.3713,0.3797,0.3778,0.381,0.381,0.3828,0.3827,0.3906,0.3841,0.384,0.384,0.384,0,0.331,0.3354,0.3387,0.3418,0.3468,0.3487,0.3536,0.3559,0.3592,0.3629,0.3638,0.3673,0.3699,0.3738,0.3755,0.381,0.382,0.3833,0.3837,0.3833,0.3832,0.385,0.3847,0.3843,0.3842,0.3842,0.3841,0,0.3353,0.3377,0.3434,0.3476,0.3488,0.3523,0.3561,0.3593,0.3613,0.3661,0.3674,0.3706,0.3753,0.3778,0.3837,0.3848,0.391,0.3911,0.3897,0.39,0.3932,0.3929,0.4027,0.4042,0.3964,0.3965,0.3966,0,0.3389,0.3423,0.347,0.3495,0.3518,0.3559,0.3587,0.3608,0.3637,0.3684,0.3712,0.3759,0.3799,0.3874,0.3904,0.395,0.3953,0.3984,0.396,0.3956,0.3957,0.3955,0.396,0.3989,0.399,0.399,0.3991,0,0.3451,0.3461,0.35,0.3545,0.3578,0.3614,0.3649,0.367,0.3697,0.373,0.3778,0.3809,0.387,0.3918,0.3967,0.3991,0.3997,0.3998,0.4008,0.4005,0.3997,0.4004,0.3911,0.3996,0.3995,0.3995,0.3995,0.3994,0.3493,0.3524,0.3563,0.3607,0.3636,0.367,0.3703,0.3728,0.3769,0.382,0.383,0.3882,0.3922,0.3988,0.4014,0.4056,0.405,0.4064,0.4068,0.4072,0.4075,0.3989,0.4065,0.4065,0.4065,0.4065,0.4065,0,0.3557,0.3583,0.3623,0.3673,0.3709,0.371,0.375,0.378,0.3826,0.3862,0.3901,0.3959,0.4006,0.404,0.4089,0.4117,0.4121,0.4129,0.4128,0.4134,0.4076,0.4064,0.4125,0.4125,0.4125,0.4125,0.4125,0.4125,0.3595,0.3649,0.3664,0.3734,0.376,0.381,0.3834,0.3866,0.3895,0.3959,0.3998,0.402,0.4057,0.4109,0.4153,0.4162,0.4181,0.4189,0.4199,0.4144,0.4138,0.4132,0.412,0.4193,0.4193,0.4253,0.4254,0.4254]}]]